User: anonymous   Login
Location: Clinton NY
(43.0598°N, 75.3602°W)
Time: 03:58:51
(UTC-05:00)
Language:

Iridium 42 - Orbit

View from above orbital plane
View from above orbital plane
View from above satellite
View from above satellite

Ground track
Ground track

The orbit data is extracted from the following two-line orbital elements,

1 25077U 97077A   17349.27072496  .00000078  00000-0  20833-4 0  9997
2 25077  86.3960 306.1737 0002565  82.5280 277.6207 14.34518384 48155
Epoch (UTC): 15 December 2017 06:29:50
Eccentricity: 0.0002565
inclination: 86.3960°
perigee height: 775 km
apogee height: 778 km
right ascension of ascending node: 306.1737°
argument of perigee: 82.5280°
revolutions per day: 14.34518384
mean anomaly at epoch: 277.6207°
orbit number at epoch: 4815

The dashed part of the orbit path shows where the satellite is in the earth's shadow,  

DLR